Retour au catalogue

FENGYUN 1C DEB

ActifPO
NORAD 36225·DEBRIS·🇨🇳 China

Lancé May 10, 1999 depuis Taiyuan Satellite Launch Center

Loading…

Prochains Passages (prochaines 24 heures)

TLE

FraisSource: Space-Track

Époque: Sep 14, 2026, 17:42 UTC

1 36225U 99025DVA 26257.73783229  .00081372  00000-0  21430-2 0  9999
2 36225  98.8286  71.2378 0019758  80.1508 280.1962 15.38027102709688

Suivez FENGYUN 1C DEB en temps réel avec AllMySat

Download on the App Store